Regional Weather Roundup
Issued by NWS Sterling, VA

Home | Current Version | Previous Version | Text Only | Print | Product List | Glossary Off
Versions: 1 2 3 4 5 6 7 8 9 10 11 12 13 14 15 16 17 18 19 20 21 22 23 24 25 26 27 28 29 30 31 32 33 34 35 36 37 38 39 40 41 42 43 44 45 46 47 48 49 50

000
ASUS41 KLWX 052110
RWRLWX

REGIONAL WEATHER ROUNDUP
NATIONAL WEATHER SERVICE BALTIMORE MD/WASHINGTON DC
500 PM EDT SUN JUL 05 2015

Note: "FAIR" indicates few or no clouds below 12,000 feet
with no significant weather and/or obstructions to visibility.
 TC=TEMPERATURE CELSIUS

 * =Non NWS site. Station does not report precipitation (e.g. rain,
    snow, etc.), thunder, or fog.

DCZ001-MDZ009-015-VAZ040>042-051-053>054-052200-
WASHINGTON METRO

CITY           SKY/WX    TMP DP  RH WIND       PRES   REMARKS
WASHINGTON NAT CLOUDY    84  70  62 S7        30.10F
DULLES         PTSUNNY   81  68  64 S3        30.11F
ANDREWS AFB    PTSUNNY   80  75  85 E6        30.10F
FT BELVOIR     MOSUNNY   82  70  66 S5        30.10F
QUANTICO       CLOUDY    82  69  64 CALM      30.11S
COLLEGE PARK*  MOSUNNY   82  68  61 CALM      30.10F
LEESBURG*      PTSUNNY   82  72  69 S12       30.12S
MANASSAS*      SUNNY     81  70  69 CALM      30.10F
GAITHERSBURG*  MOSUNNY   81  68  65 SE8       30.15S

$$

MDZ006>007-011-014-052200-
BALTIMORE METRO

CITY           SKY/WX    TMP DP  RH WIND       PRES   REMARKS
BWI AIRPORT    PTSUNNY   82  68  62 SE5       30.10F
MD SCIENCE CTR   N/A     82  67  60 MISG      30.11F
MARTIN STATE   MOSUNNY   82  70  65 SE6       30.12F
ANNAPOLIS      MOSUNNY   79  67  66 SE8       30.11S
FORT MEADE*    MOSUNNY   79  68  69 SE5       30.13F

$$

MDZ012-015-019>023-052200-
MARYLAND EASTERN SHORE

CITY           SKY/WX    TMP DP  RH WIND       PRES   REMARKS
OCEAN CITY     MOSUNNY   76  69  79 SE8       30.13S
SALISBURY      MOSUNNY   81  71  71 SE9       30.11F
BAY BRIDGE AP*   N/A     79  68  69 W3        30.12S
CAMBRIDGE*     MOSUNNY   82  66  57 S5        30.10F

$$

MDZ017>025-052200-
SOUTHERN MARYLAND

CITY           SKY/WX    TMP DP  RH WIND       PRES   REMARKS
PATUXENT RIVER PTSUNNY   80  68  66 SE7       30.11F
ST INIGOES     NOT AVBL
LEONARDTOWN*   PTSUNNY   81  66  61 CALM      30.13F

$$

MDZ003>005-052200-
NORTH CENTRAL MARYLAND

CITY           SKY/WX    TMP DP  RH WIND       PRES   REMARKS
FREDERICK*     NOT AVBL
HAGERSTOWN APT MOSUNNY   82  63  52 E9        30.11F
WESTMINSTER*   PTSUNNY   81  70  69 E3        30.13F

$$

MDZ501>502-052200-
WESTERN MARYLAND

CITY           SKY/WX    TMP DP  RH WIND       PRES   REMARKS
OAKLAND*       PTSUNNY   70 N/A N/A SE6       30.19S
CUMBERLAND*    PTSUNNY   81  64  57 SE7       30.14R

$$

VAZ025>031-052200-
SHENANDOAH VALLEY

CITY           SKY/WX    TMP DP  RH WIND       PRES   REMARKS
WINCHESTER*    PTSUNNY   81  70  69 SE8       30.12S
FRONT ROYAL*   MOCLDY    79  70  73 S6        30.10F
LURAY*         MOCLDY    81  70  69 SE6       30.11S
NEW MARKET*    FAIR      79  68  68 S6        30.08F
STAUNTON*      CLOUDY    80  68  67 SE6       30.13F
WAYNESBORO*    CLOUDY    75  68  78 E9        30.14F

$$

WVZ021-048>050-054>055-052200-
EASTERN WEST VIRGINIA PANHANDLE

CITY           SKY/WX    TMP DP  RH WIND       PRES   REMARKS
MARTINSBURG    PTSUNNY   80  67  64 SE7       30.11F
PETERSBURG*    CLOUDY    81  65  58 SE7       30.09F

$$

VAZ036>039-050-052200-
CENTRAL FOOTHILLS

CITY           SKY/WX    TMP DP  RH WIND       PRES   REMARKS
CHARLOTTESVILL CLOUDY    79  68  69 E6        30.11F
CULPEPER*      PTSUNNY   80  70  73 CALM      30.11F
ORANGE*        PTSUNNY   82  70  65 SE3       30.12F
GORDONSVILLE*  FAIR      81  70  69 E5        30.10F
WARRENTON*     FAIR      82  72  73 CALM      30.11S

$$

VAZ055>057-052200-
NORTH AND CENTRAL PIEDMONT

CITY           SKY/WX    TMP DP  RH WIND       PRES   REMARKS
FREDERICKSBRG* PTSUNNY   84  71  65 E6        30.09S
STAFFORD*      CLOUDY    80  71  72 E7        30.14F

$$

NCZ024-NYZ072-PAZ021-071-VAZ022-071-052200-
OTHER REGIONAL OBSERVATIONS

CITY           SKY/WX    TMP DP  RH WIND       PRES   REMARKS
NEW YORK CITY  SUNNY     81  62  52 CALM      30.12F
PHILADELPHIA   MOSUNNY   83  63  50 S6        30.11F
PITTSBURGH     CLOUDY    82  59  45 E7        30.10F
ROANOKE        CLOUDY    78  70  76 SE9       30.10F
RICHMOND       CLOUDY    83  73  72 E6        30.09F
RALEIGH        CLOUDY    82  72  71 SW8       30.07R

$$

ANZ530>537-052200-
MARINE OBSERVATIONS

STATION/POSITION TIME  TEMP    WIND        PRES
                       AIR SEA DIR/SP/G
                 (UTC) (F)     (DEG/KT/KT) (MB)
THOMAS PT LIGHT  2100   78     180/  1       N/A
BALT KEY BRIDGE  2000   78     100/  7/  8 1019.9F
COVE POINT       2000   77     190/  7/  8 1020.6F
LEWISETTA        2000   78 80  100/  8/  8 1019.7F
SOLOMONS ISLAND  2000      82                N/A
PINEY POINT      2000          130/  8/  9   N/A

$$




USA.gov is the U.S. government's official web portal to all federal, state and local government web resources and services.